Oklahoma City / Page Muni, OK

9:04 PM CDT on June 24, 2017 (GMT -0500)
Oklahoma City / Page Muni

Weather History for KRCE - February, 2014

Change the Weather History Date:

Thursday, February 20, 2014

  Actual Average (KPWA) Record (KPWA)
Temperature  
Mean Temperature 48 °F -  
Max Temperature 60 °F 50 °F 81 °F (2016)
Min Temperature 35 °F 29 °F 18 °F (1955)
Degree Days  
Heating Degree Days 18    
Moisture  
Dew Point 32 °F    
Average Humidity 55    
Maximum Humidity 100    
Minimum Humidity 16    
Precipitation  
Precipitation 0.00 in - - ()
Sea Level Pressure  
Sea Level Pressure 29.81 in    
Wind  
Wind Speed 21 mph (WNW)    
Max Wind Speed 40 mph    
Max Gust Speed 52 mph    
Visibility 8 miles    
Events      
Averages and records for this station are not official NWS values.
T = Trace of Precipitation, MM = Missing Value Source: NWS Daily Summary

Daily Weather History Graph

Daily Weather History Graph

Search for Another Location

Airport or City:

Trip Planner

Search our weather history database for the weather conditions in past years. The results will help you decide how hot, cold, wet, or windy it might be!

Date:

Astronomy

Feb. 20, 2014 Rise Set
Actual Time 7:12 AM CST 6:18 PM CST
Civil Twilight 6:46 AM CST 6:44 PM CST
Nautical Twilight 6:16 AM CST 7:13 PM CST
Astronomical Twilight 5:47 AM CST 7:43 PM CST
Moon No Moon Rise 10:08 AM CST (2/20)
Length of Visible Light 11h 57m
Length of Day
11h 06m
Waning Gibbous, 70% of the Moon is Illuminated
Feb 20
Waning Gibbous
Feb 22
Last Quarter
Mar 1
New
Mar 8
First Quarter
Mar 16
Full

Hourly Weather History & Observations

Time (CST) Temp. Windchill Dew Point Humidity Pressure Visibility Wind Dir Wind Speed Gust Speed Precip Events Conditions
12:15 AM 59.0 °F - 59.0 °F 100% 29.50 in 6.0 mi South 18.4 mph 24.2 mph N/A   Mist
12:35 AM 59.0 °F - 59.0 °F 100% 29.49 in 5.0 mi South 20.7 mph 26.5 mph N/A   Mist
12:55 AM 59.0 °F - 59.0 °F 100% 29.48 in 5.0 mi South 19.6 mph 25.3 mph N/A   Mist
1:15 AM 59.0 °F - 59.0 °F 100% 29.47 in 5.0 mi South 19.6 mph 25.3 mph N/A   Mist
1:35 AM 59.0 °F - 59.0 °F 100% 29.47 in 5.0 mi South 19.6 mph 25.3 mph N/A   Clear
1:55 AM 59.0 °F - 59.0 °F 100% 29.46 in 5.0 mi South 20.7 mph 27.6 mph N/A   Clear
2:15 AM 59.0 °F - 59.0 °F 100% 29.45 in 5.0 mi South 20.7 mph 29.9 mph N/A   Clear
2:35 AM 59.0 °F - 59.0 °F 100% 29.44 in 5.0 mi South 23.0 mph 29.9 mph N/A   Clear
2:55 AM 60.8 °F - 60.8 °F 100% 29.43 in 7.0 mi SSW 26.5 mph 33.4 mph N/A   Clear
3:15 AM 60.8 °F - 60.8 °F 100% 29.42 in 7.0 mi SSW 24.2 mph 32.2 mph N/A   Clear
3:35 AM 60.8 °F - 59.0 °F 94% 29.42 in 7.0 mi SSW 24.2 mph 29.9 mph N/A   Clear
3:55 AM 60.8 °F - 59.0 °F 94% 29.43 in 7.0 mi SSW 23.0 mph 32.2 mph N/A   Clear
4:15 AM 60.8 °F - 59.0 °F 94% 29.43 in 7.0 mi SSW 21.9 mph 29.9 mph N/A   Partly Cloudy
4:35 AM 60.8 °F - 59.0 °F 94% 29.44 in 8.0 mi SSW 19.6 mph 32.2 mph N/A   Unknown
4:55 AM 60.8 °F - 59.0 °F 94% 29.45 in 8.0 mi SW 17.3 mph 31.1 mph N/A   Unknown
5:15 AM 60.8 °F - 57.2 °F 88% 29.46 in 8.0 mi SW 16.1 mph 23.0 mph N/A   Unknown
5:35 AM 59.0 °F - 57.2 °F 94% 29.47 in 8.0 mi SW 12.7 mph 20.7 mph N/A   Unknown
5:55 AM 59.0 °F - 53.6 °F 82% 29.49 in 9.0 mi SW 13.8 mph 19.6 mph N/A   Unknown
6:15 AM 57.2 °F - 51.8 °F 82% 29.50 in 10.0 mi WSW 18.4 mph 24.2 mph N/A   Unknown
6:35 AM 57.2 °F - 44.6 °F 63% 29.51 in 10.0 mi WSW 18.4 mph 25.3 mph N/A   Unknown
6:55 AM 55.4 °F - 39.2 °F 54% 29.54 in 8.0 mi West 24.2 mph 34.5 mph N/A   Unknown
7:15 AM 55.4 °F - 37.4 °F 51% 29.56 in 4.0 mi West 28.8 mph 36.8 mph N/A   Haze
7:35 AM 53.6 °F - 35.6 °F 51% 29.60 in 4.0 mi West 29.9 mph 38.0 mph N/A   Haze
7:55 AM 50.0 °F - 35.6 °F 58% 29.65 in 6.0 mi WNW 34.5 mph 44.9 mph N/A   Haze
8:15 AM 46.4 °F 37.2 °F 33.8 °F 62% 29.69 in 7.0 mi NW 29.9 mph 41.4 mph N/A   Clear
8:35 AM 46.4 °F 37.2 °F 33.8 °F 62% 29.71 in 6.0 mi NW 29.9 mph 39.1 mph N/A   Haze
8:55 AM 48.2 °F - 33.8 °F 58% 29.74 in 8.0 mi NW 28.8 mph 34.5 mph N/A   Partly Cloudy
9:15 AM 46.4 °F 37.0 °F 32.0 °F 57% 29.77 in 8.0 mi NNW 31.1 mph 44.9 mph N/A   Mostly Cloudy
9:35 AM 44.6 °F 33.3 °F 32.0 °F 61% 29.79 in 9.0 mi NW 40.3 mph 47.2 mph N/A   Mostly Cloudy
9:55 AM 46.4 °F 37.2 °F 32.0 °F 57% 29.80 in 7.0 mi NNW 29.9 mph 46.0 mph N/A   Scattered Clouds
10:15 AM 46.4 °F 35.8 °F 30.2 °F 53% 29.82 in 4.0 mi NNW 40.3 mph 51.8 mph N/A   Haze
10:35 AM 46.4 °F 37.5 °F 30.2 °F 53% 29.86 in 7.0 mi NNW 27.6 mph 43.7 mph N/A   Partly Cloudy
10:55 AM 46.4 °F 36.7 °F 32.0 °F 57% 29.89 in 10.0 mi NNW 33.4 mph 44.9 mph N/A   Mostly Cloudy
11:15 AM 46.4 °F 36.7 °F 32.0 °F 57% 29.91 in 10.0 mi NNW 33.4 mph 46.0 mph N/A   Overcast
11:35 AM 46.4 °F 37.5 °F 32.0 °F 57% 29.92 in 10.0 mi North 27.6 mph 38.0 mph N/A   Mostly Cloudy
11:55 AM 48.2 °F - 32.0 °F 54% 29.92 in 10.0 mi NNW 24.2 mph 38.0 mph N/A   Scattered Clouds
12:15 PM 50.0 °F - 32.0 °F 50% 29.93 in 10.0 mi NNW 27.6 mph 32.2 mph N/A   Mostly Cloudy
12:35 PM 50.0 °F - 32.0 °F 50% 29.93 in 10.0 mi NNW 29.9 mph 35.7 mph N/A   Scattered Clouds
12:55 PM 50.0 °F - 32.0 °F 50% 29.92 in 10.0 mi NW 25.3 mph 34.5 mph N/A   Partly Cloudy
1:15 PM 51.8 °F - 28.4 °F 41% 29.93 in 10.0 mi NW 23.0 mph 34.5 mph N/A   Partly Cloudy
1:35 PM 51.8 °F - 28.4 °F 41% 29.93 in 10.0 mi NNW 24.2 mph 29.9 mph N/A   Clear
1:55 PM 53.6 °F - 24.8 °F 33% 29.93 in 10.0 mi NNW 23.0 mph 28.8 mph N/A   Clear
2:15 PM 53.6 °F - 21.2 °F 28% 29.94 in 10.0 mi NNW 21.9 mph 32.2 mph N/A   Clear
2:35 PM 53.6 °F - 21.2 °F 28% 29.95 in 10.0 mi NNW 24.2 mph 28.8 mph N/A   Clear
2:55 PM 55.4 °F - 19.4 °F 25% 29.95 in 10.0 mi NW 24.2 mph 32.2 mph N/A   Clear
3:15 PM 53.6 °F - 17.6 °F 24% 29.96 in 10.0 mi NNW 26.5 mph 33.4 mph N/A   Clear
3:35 PM 55.4 °F - 15.8 °F 21% 29.97 in 10.0 mi NW 24.2 mph 32.2 mph N/A   Clear
3:55 PM 55.4 °F - 15.8 °F 21% 29.97 in 10.0 mi NNW 18.4 mph 28.8 mph N/A   Clear
4:15 PM 55.4 °F - 14.0 °F 20% 29.97 in 10.0 mi NW 17.3 mph 31.1 mph N/A   Clear
4:35 PM 55.4 °F - 14.0 °F 20% 29.98 in 10.0 mi NNW 19.6 mph 26.5 mph N/A   Clear
4:55 PM 53.6 °F - 10.4 °F 18% 29.99 in 10.0 mi NW 21.9 mph 27.6 mph N/A   Clear
5:15 PM 53.6 °F - 8.6 °F 16% 30.00 in 10.0 mi NW 18.4 mph 28.8 mph N/A   Clear
5:35 PM 51.8 °F - 10.4 °F 19% 30.01 in 10.0 mi NNW 19.6 mph 27.6 mph N/A   Clear
5:55 PM 50.0 °F - 10.4 °F 20% 30.02 in 10.0 mi NW 13.8 mph 24.2 mph N/A   Clear
6:15 PM 48.2 °F - 12.2 °F 24% 30.03 in 10.0 mi NNW 17.3 mph 24.2 mph N/A   Clear
6:35 PM 46.4 °F 41.1 °F 15.8 °F 29% 30.04 in 10.0 mi NW 11.5 mph 19.6 mph N/A   Clear
6:55 PM 44.6 °F 39.2 °F 17.6 °F 34% 30.05 in 10.0 mi NW 10.4 mph - N/A   Unknown
7:15 PM 44.6 °F 39.7 °F 17.6 °F 34% 30.05 in 10.0 mi NW 9.2 mph - N/A   Unknown
7:35 PM 41.0 °F 36.4 °F 17.6 °F 39% 30.06 in 10.0 mi NW 6.9 mph - N/A   Unknown
7:55 PM 41.0 °F 36.4 °F 17.6 °F 39% 30.07 in 10.0 mi NW 6.9 mph - N/A   Unknown
8:15 PM 41.0 °F 35.8 °F 15.8 °F 36% 30.07 in 10.0 mi NW 8.1 mph - N/A   Unknown
8:35 PM 39.2 °F 34.2 °F 15.8 °F 39% 30.08 in 10.0 mi WNW 6.9 mph - N/A   Unknown
8:55 PM 39.2 °F 33.6 °F 14.0 °F 36% 30.09 in 10.0 mi WNW 8.1 mph - N/A   Unknown
9:15 PM 39.2 °F 35.0 °F 14.0 °F 36% 30.09 in 10.0 mi West 5.8 mph - N/A   Unknown
9:35 PM 39.2 °F 35.0 °F 14.0 °F 36% 30.09 in 10.0 mi WNW 5.8 mph - N/A   Unknown
9:55 PM 37.4 °F 32.8 °F 14.0 °F 38% 30.09 in 10.0 mi WNW 5.8 mph - N/A   Unknown
10:15 PM 37.4 °F 32.8 °F 14.0 °F 38% 30.10 in 10.0 mi WNW 5.8 mph - N/A   Unknown
10:35 PM 37.4 °F 32.8 °F 14.0 °F 38% 30.10 in 10.0 mi West 5.8 mph - N/A   Unknown
10:55 PM 37.4 °F 32.8 °F 14.0 °F 38% 30.10 in 10.0 mi WNW 5.8 mph - N/A   Unknown
11:15 PM 35.6 °F 32.8 °F 14.0 °F 41% 30.10 in 10.0 mi West 3.5 mph - N/A   Unknown
11:35 PM 37.4 °F 32.8 °F 12.2 °F 36% 30.10 in 10.0 mi WNW 5.8 mph - N/A   Unknown
11:55 PM 35.6 °F 31.7 °F 12.2 °F 38% 30.10 in 10.0 mi WSW 4.6 mph - N/A   Unknown